Time,TemperatureF,DewpointF,PressureIn,WindDirection,WindDirectionDegrees,WindSpeedMPH,WindSpeedGustMPH,Humidity,HourlyPrecipIn,Conditions,Clouds,dailyrainin,SoftwareType,DateUTC
2013-01-21 00:02:00,25.1,15.0,30.15,WNW,286,0.0,2.0,65,0.00,,,0.00,VWS V14.01,2013-01-21 05:02:00,
2013-01-21 00:03:00,25.0,14.6,30.15,WNW,286,0.0,2.0,64,0.00,,,0.00,VWS V14.01,2013-01-21 05:03:00,
2013-01-21 00:06:00,25.0,14.9,30.15,WNW,286,0.0,2.0,65,0.00,,,0.00,VWS V14.01,2013-01-21 05:06:00,
2013-01-21 00:11:00,25.0,14.9,30.15,WNW,286,0.0,2.0,65,0.00,,,0.00,VWS V14.01,2013-01-21 05:11:00,
2013-01-21 00:16:00,24.9,14.8,30.15,WNW,286,1.0,2.0,65,0.00,,,0.00,VWS V14.01,2013-01-21 05:16:00,
2013-01-21 00:21:00,24.8,14.7,30.15,WNW,288,1.0,3.0,65,0.00,,,0.00,VWS V14.01,2013-01-21 05:21:00,
2013-01-21 00:26:00,24.8,15.1,30.14,WNW,288,0.0,3.0,66,0.00,,,0.00,VWS V14.01,2013-01-21 05:26:00,
2013-01-21 00:31:00,24.7,15.0,30.14,WNW,288,0.0,0.0,66,0.00,,,0.00,VWS V14.01,2013-01-21 05:31:00,
2013-01-21 00:36:00,24.7,15.0,30.14,WNW,288,0.0,1.0,66,0.00,,,0.00,VWS V14.01,2013-01-21 05:36:00,
2013-01-21 00:41:00,24.6,14.9,30.14,WNW,288,0.0,1.0,66,0.00,,,0.00,VWS V14.01,2013-01-21 05:41:00,
2013-01-21 00:46:00,24.5,14.8,30.14,WNW,288,0.0,1.0,66,0.00,,,0.00,VWS V14.01,2013-01-21 05:46:00,
2013-01-21 00:51:00,24.4,14.7,30.14,WNW,288,0.0,1.0,66,0.00,,,0.00,VWS V14.01,2013-01-21 05:51:00,
2013-01-21 00:56:00,24.3,14.9,30.13,WNW,288,0.0,1.0,67,0.00,,,0.00,VWS V14.01,2013-01-21 05:56:00,
2013-01-21 01:02:00,24.2,14.8,30.13,WNW,288,0.0,0.0,67,0.00,,,0.00,VWS V14.01,2013-01-21 06:02:00,
2013-01-21 01:07:00,24.0,14.6,30.13,SW,234,0.0,1.0,67,0.00,,,0.00,VWS V14.01,2013-01-21 06:07:00,
2013-01-21 01:12:00,23.8,14.5,30.13,SW,234,0.0,2.0,67,0.00,,,0.00,VWS V14.01,2013-01-21 06:12:00,
2013-01-21 01:17:00,23.7,14.4,30.13,SW,234,0.0,2.0,67,0.00,,,0.00,VWS V14.01,2013-01-21 06:17:00,
2013-01-21 01:22:00,23.6,14.3,30.13,SW,234,0.0,2.0,67,0.00,,,0.00,VWS V14.01,2013-01-21 06:22:00,
2013-01-21 01:27:00,23.4,14.4,30.13,SW,234,0.0,2.0,68,0.00,,,0.00,VWS V14.01,2013-01-21 06:27:00,
2013-01-21 01:32:00,23.3,14.3,30.13,SW,234,0.0,0.0,68,0.00,,,0.00,VWS V14.01,2013-01-21 06:32:00,
2013-01-21 01:37:00,23.2,14.6,30.13,SW,234,0.0,0.0,69,0.00,,,0.00,VWS V14.01,2013-01-21 06:37:00,
2013-01-21 01:42:00,23.1,14.8,30.14,SW,234,0.0,0.0,70,0.00,,,0.00,VWS V14.01,2013-01-21 06:42:00,
2013-01-21 01:47:00,23.0,15.0,30.14,SW,234,0.0,0.0,71,0.00,,,0.00,VWS V14.01,2013-01-21 06:47:00,
2013-01-21 01:52:00,23.1,15.4,30.14,SW,234,0.0,0.0,72,0.00,,,0.00,VWS V14.01,2013-01-21 06:52:00,
2013-01-21 01:57:00,23.2,15.2,30.14,SW,234,0.0,0.0,71,0.00,,,0.00,VWS V14.01,2013-01-21 06:57:00,
2013-01-21 02:02:00,23.3,15.0,30.13,SW,234,0.0,0.0,70,0.00,,,0.00,VWS V14.01,2013-01-21 07:02:00,
2013-01-21 02:08:00,23.4,15.1,30.14,SW,234,0.0,0.0,70,0.00,,,0.00,VWS V14.01,2013-01-21 07:08:00,
2013-01-21 02:12:00,23.4,15.1,30.14,SW,234,0.0,0.0,70,0.00,,,0.00,VWS V14.01,2013-01-21 07:12:00,
2013-01-21 02:18:00,23.4,15.1,30.14,SW,234,0.0,0.0,70,0.00,,,0.00,VWS V14.01,2013-01-21 07:18:00,
2013-01-21 02:23:00,23.5,14.8,30.13,WNW,290,0.0,2.0,69,0.00,,,0.00,VWS V14.01,2013-01-21 07:23:00,
2013-01-21 02:28:00,23.5,14.8,30.13,WNW,290,0.0,2.0,69,0.00,,,0.00,VWS V14.01,2013-01-21 07:28:00,
2013-01-21 02:33:00,23.5,15.2,30.13,WNW,290,0.0,0.0,70,0.00,,,0.00,VWS V14.01,2013-01-21 07:33:00,
2013-01-21 02:38:00,23.5,14.8,30.14,WNW,290,0.0,1.0,69,0.00,,,0.00,VWS V14.01,2013-01-21 07:38:00,
2013-01-21 02:43:00,23.5,15.2,30.13,WNW,290,0.0,1.0,70,0.00,,,0.00,VWS V14.01,2013-01-21 07:43:00,
2013-01-21 02:48:00,23.5,14.8,30.13,WNW,290,0.0,1.0,69,0.00,,,0.00,VWS V14.01,2013-01-21 07:48:00,
2013-01-21 02:53:00,23.6,14.9,30.13,WNW,290,0.0,1.0,69,0.00,,,0.00,VWS V14.01,2013-01-21 07:53:00,
2013-01-21 02:58:00,23.6,14.6,30.13,WNW,290,0.0,1.0,68,0.00,,,0.00,VWS V14.01,2013-01-21 07:58:00,
2013-01-21 03:03:00,23.7,15.0,30.13,WNW,290,0.0,1.0,69,0.00,,,0.00,VWS V14.01,2013-01-21 08:03:00,
2013-01-21 03:08:00,23.8,15.1,30.13,WNW,290,0.0,1.0,69,0.00,,,0.00,VWS V14.01,2013-01-21 08:08:00,
2013-01-21 03:13:00,23.8,15.5,30.13,WNW,290,0.0,1.0,70,0.00,,,0.00,VWS V14.01,2013-01-21 08:13:00,
2013-01-21 03:18:00,23.8,15.5,30.13,WNW,290,0.0,1.0,70,0.00,,,0.00,VWS V14.01,2013-01-21 08:18:00,
2013-01-21 03:23:00,23.9,15.2,30.13,WNW,290,0.0,1.0,69,0.00,,,0.00,VWS V14.01,2013-01-21 08:23:00,
2013-01-21 03:28:00,23.9,15.2,30.13,WNW,290,0.0,1.0,69,0.00,,,0.00,VWS V14.01,2013-01-21 08:28:00,
2013-01-21 03:34:00,24.0,15.6,30.12,WNW,290,0.0,0.0,70,0.00,,,0.00,VWS V14.01,2013-01-21 08:34:00,
2013-01-21 03:39:00,24.0,15.6,30.12,WNW,290,0.0,0.0,70,0.00,,,0.00,VWS V14.01,2013-01-21 08:39:00,
2013-01-21 03:44:00,24.0,15.6,30.12,WNW,290,0.0,0.0,70,0.00,,,0.00,VWS V14.01,2013-01-21 08:44:00,
2013-01-21 03:49:00,24.0,16.0,30.12,WNW,290,0.0,1.0,71,0.00,,,0.00,VWS V14.01,2013-01-21 08:49:00,
2013-01-21 03:54:00,24.0,15.6,30.12,WNW,290,0.0,2.0,70,0.00,,,0.00,VWS V14.01,2013-01-21 08:54:00,
2013-01-21 03:59:00,24.1,15.4,30.12,SW,217,0.0,3.0,69,0.00,,,0.00,VWS V14.01,2013-01-21 08:59:00,
2013-01-21 04:04:00,24.2,15.2,30.12,SSW,203,1.0,2.0,68,0.00,,,0.00,VWS V14.01,2013-01-21 09:04:00,
2013-01-21 04:09:00,24.2,14.8,30.12,SW,219,1.0,4.0,67,0.00,,,0.00,VWS V14.01,2013-01-21 09:09:00,
2013-01-21 04:14:00,24.2,14.8,30.11,SSW,205,0.0,4.0,67,0.00,,,0.00,VWS V14.01,2013-01-21 09:14:00,
2013-01-21 04:19:00,24.2,14.5,30.11,SW,215,1.0,7.0,66,0.00,,,0.00,VWS V14.01,2013-01-21 09:19:00,
2013-01-21 04:24:00,24.0,14.3,30.11,SW,214,0.0,7.0,66,0.00,,,0.00,VWS V14.01,2013-01-21 09:24:00,
2013-01-21 04:29:00,24.0,14.6,30.10,SSW,201,1.0,7.0,67,0.00,,,0.00,VWS V14.01,2013-01-21 09:29:00,
2013-01-21 04:34:00,24.0,14.6,30.10,SW,222,3.0,5.0,67,0.00,,,0.00,VWS V14.01,2013-01-21 09:34:00,
2013-01-21 04:39:00,23.9,16.2,30.10,WSW,248,3.0,7.0,72,0.00,,,0.00,VWS V14.01,2013-01-21 09:39:00,
2013-01-21 04:44:00,23.9,14.2,30.10,WSW,246,3.0,7.0,66,0.00,,,0.00,VWS V14.01,2013-01-21 09:44:00,
2013-01-21 04:49:00,23.9,14.6,30.11,SW,219,1.0,7.0,67,0.00,,,0.00,VWS V14.01,2013-01-21 09:49:00,
2013-01-21 04:54:00,23.8,14.5,30.10,SSW,199,2.0,7.0,67,0.00,,,0.00,VWS V14.01,2013-01-21 09:54:00,
2013-01-21 04:59:00,23.8,14.5,30.10,SSW,201,2.0,7.0,67,0.00,,,0.00,VWS V14.01,2013-01-21 09:59:00,
2013-01-21 05:05:00,23.8,14.8,30.10,SSW,201,0.0,3.0,68,0.00,,,0.00,VWS V14.01,2013-01-21 10:05:00,
2013-01-21 05:10:00,23.7,15.0,30.10,SSW,202,0.0,3.0,69,0.00,,,0.00,VWS V14.01,2013-01-21 10:10:00,
2013-01-21 05:15:00,23.7,15.7,30.10,SSW,202,0.0,3.0,71,0.00,,,0.00,VWS V14.01,2013-01-21 10:15:00,
2013-01-21 05:20:00,23.5,15.5,30.10,SSW,202,0.0,3.0,71,0.00,,,0.00,VWS V14.01,2013-01-21 10:20:00,
2013-01-21 05:25:00,23.4,16.0,30.10,SSW,202,0.0,3.0,73,0.00,,,0.00,VWS V14.01,2013-01-21 10:25:00,
2013-01-21 05:30:00,23.4,16.4,30.09,SSW,202,2.0,3.0,74,0.00,,,0.00,VWS V14.01,2013-01-21 10:30:00,
2013-01-21 05:35:00,23.3,16.2,30.09,SSW,202,1.0,2.0,74,0.00,,,0.00,VWS V14.01,2013-01-21 10:35:00,
2013-01-21 05:40:00,23.3,16.6,30.09,SSW,201,1.0,4.0,75,0.00,,,0.00,VWS V14.01,2013-01-21 10:40:00,
2013-01-21 05:45:00,23.3,16.9,30.09,SSW,201,2.0,4.0,76,0.00,,,0.00,VWS V14.01,2013-01-21 10:45:00,
2013-01-21 05:50:00,23.3,16.9,30.09,South,189,2.0,4.0,76,0.00,,,0.00,VWS V14.01,2013-01-21 10:50:00,
2013-01-21 05:55:00,23.3,17.2,30.10,South,189,0.0,4.0,77,0.00,,,0.00,VWS V14.01,2013-01-21 10:55:00,
2013-01-21 06:00:00,23.3,17.2,30.10,SSW,201,0.0,0.0,77,0.00,,,0.00,VWS V14.01,2013-01-21 11:00:00,
2013-01-21 06:05:00,23.3,17.2,30.09,SSW,200,2.0,3.0,77,0.00,,,0.00,VWS V14.01,2013-01-21 11:05:00,
2013-01-21 06:10:00,23.3,17.2,30.09,SSW,200,3.0,4.0,77,0.00,,,0.00,VWS V14.01,2013-01-21 11:10:00,
2013-01-21 06:15:00,23.4,17.3,30.09,SSW,200,2.0,4.0,77,0.00,,,0.00,VWS V14.01,2013-01-21 11:15:00,
2013-01-21 06:20:00,23.4,17.3,30.09,South,188,1.0,5.0,77,0.00,,,0.00,VWS V14.01,2013-01-21 11:20:00,
2013-01-21 06:25:00,23.4,17.3,30.09,South,186,4.0,5.0,77,0.00,,,0.00,VWS V14.01,2013-01-21 11:25:00,
2013-01-21 06:31:00,23.4,17.3,30.09,SSW,207,1.0,3.0,77,0.00,,,0.00,VWS V14.01,2013-01-21 11:31:00,
2013-01-21 06:36:00,23.5,17.4,30.09,SSW,194,2.0,4.0,77,0.00,,,0.00,VWS V14.01,2013-01-21 11:36:00,
2013-01-21 06:41:00,23.5,17.4,30.09,SW,227,1.0,6.0,77,0.00,,,0.00,VWS V14.01,2013-01-21 11:41:00,
2013-01-21 06:46:00,23.6,17.2,30.09,SSW,196,0.0,6.0,76,0.00,,,0.00,VWS V14.01,2013-01-21 11:46:00,
2013-01-21 06:51:00,23.6,17.2,30.09,SSW,194,5.0,6.0,76,0.00,,,0.00,VWS V14.01,2013-01-21 11:51:00,
2013-01-21 06:56:00,23.6,17.2,30.09,SW,229,3.0,6.0,76,0.00,,,0.00,VWS V14.01,2013-01-21 11:56:00,
2013-01-21 07:01:00,23.6,17.2,30.10,SSW,211,1.0,4.0,76,0.00,,,0.00,VWS V14.01,2013-01-21 12:01:00,
2013-01-21 07:06:00,23.6,17.5,30.09,SW,217,0.0,4.0,77,0.00,,,0.00,VWS V14.01,2013-01-21 12:06:00,
2013-01-21 07:11:00,23.6,17.2,30.09,SSW,207,0.0,4.0,76,0.00,,,0.00,VWS V14.01,2013-01-21 12:11:00,
2013-01-21 07:16:00,23.6,17.2,30.10,SSW,194,1.0,4.0,76,0.00,,,0.00,VWS V14.01,2013-01-21 12:16:00,
2013-01-21 07:21:00,23.6,17.2,30.10,SSW,195,1.0,4.0,76,0.00,,,0.00,VWS V14.01,2013-01-21 12:21:00,
2013-01-21 07:26:00,23.7,17.3,30.10,SSW,195,0.0,4.0,76,0.00,,,0.00,VWS V14.01,2013-01-21 12:26:00,
2013-01-21 07:31:00,23.7,17.3,30.09,SSW,195,1.0,2.0,76,0.00,,,0.00,VWS V14.01,2013-01-21 12:31:00,
2013-01-21 07:36:00,23.7,17.3,30.09,SSW,195,0.0,2.0,76,0.00,,,0.00,VWS V14.01,2013-01-21 12:36:00,
2013-01-21 07:41:00,23.8,17.4,30.09,SSW,195,0.0,2.0,76,0.00,,,0.00,VWS V14.01,2013-01-21 12:41:00,
2013-01-21 07:47:00,23.8,17.4,30.09,SSW,195,0.0,2.0,76,0.00,,,0.00,VWS V14.01,2013-01-21 12:47:00,
2013-01-21 07:52:00,23.8,17.0,30.09,SSW,195,0.0,3.0,75,0.00,,,0.00,VWS V14.01,2013-01-21 12:52:00,
2013-01-21 07:57:00,23.8,17.0,30.09,SSW,195,3.0,3.0,75,0.00,,,0.00,VWS V14.01,2013-01-21 12:57:00,
2013-01-21 08:02:00,23.9,17.1,30.09,SSW,195,3.0,3.0,75,0.00,,,0.00,VWS V14.01,2013-01-21 13:02:00,
2013-01-21 08:07:00,23.9,17.1,30.08,SSW,195,0.0,3.0,75,0.00,,,0.00,VWS V14.01,2013-01-21 13:07:00,
2013-01-21 08:12:00,23.9,16.8,30.08,SSW,195,0.0,3.0,74,0.00,,,0.00,VWS V14.01,2013-01-21 13:12:00,
2013-01-21 08:17:00,24.0,16.9,30.08,SSW,195,0.0,3.0,74,0.00,,,0.00,VWS V14.01,2013-01-21 13:17:00,
2013-01-21 08:22:00,24.0,17.2,30.08,SSW,195,2.0,3.0,75,0.00,,,0.00,VWS V14.01,2013-01-21 13:22:00,
2013-01-21 08:27:00,24.1,17.0,30.08,SSW,195,0.0,3.0,74,0.00,,,0.00,VWS V14.01,2013-01-21 13:27:00,
2013-01-21 08:32:00,24.2,17.1,30.07,SSW,195,0.0,2.0,74,0.00,,,0.00,VWS V14.01,2013-01-21 13:32:00,
2013-01-21 08:37:00,24.2,17.1,30.07,SSW,195,0.0,2.0,74,0.00,,,0.00,VWS V14.01,2013-01-21 13:37:00,
2013-01-21 08:42:00,24.2,17.1,30.08,SSW,195,0.0,3.0,74,0.00,,,0.00,VWS V14.01,2013-01-21 13:42:00,
2013-01-21 08:47:00,24.3,17.2,30.07,SSW,195,0.0,3.0,74,0.00,,,0.00,VWS V14.01,2013-01-21 13:47:00,
2013-01-21 08:52:00,24.4,17.3,30.07,SSW,195,0.0,3.0,74,0.00,,,0.00,VWS V14.01,2013-01-21 13:52:00,
2013-01-21 08:57:00,24.5,17.4,30.07,SSW,195,2.0,3.0,74,0.00,,,0.00,VWS V14.01,2013-01-21 13:57:00,
2013-01-21 09:02:00,24.6,17.5,30.07,SSW,195,0.0,2.0,74,0.00,,,0.00,VWS V14.01,2013-01-21 14:02:00,
2013-01-21 09:07:00,24.7,17.3,30.07,SSW,195,1.0,2.0,73,0.00,,,0.00,VWS V14.01,2013-01-21 14:07:00,
2013-01-21 09:12:00,24.8,17.4,30.07,SSW,195,0.0,3.0,73,0.00,,,0.00,VWS V14.01,2013-01-21 14:12:00,
2013-01-21 09:17:00,25.1,17.7,30.07,SSW,195,0.0,3.0,73,0.00,,,0.00,VWS V14.01,2013-01-21 14:17:00,
2013-01-21 09:23:00,25.1,17.4,30.07,SSW,200,2.0,4.0,72,0.00,,,0.00,VWS V14.01,2013-01-21 14:23:00,
2013-01-21 09:28:00,25.2,17.5,30.07,South,171,1.0,4.0,72,0.00,,,0.00,VWS V14.01,2013-01-21 14:28:00,
2013-01-21 09:33:00,25.4,17.3,30.07,South,177,0.0,4.0,71,0.00,,,0.00,VWS V14.01,2013-01-21 14:33:00,
2013-01-21 09:38:00,25.6,17.5,30.06,South,188,2.0,6.0,71,0.00,,,0.00,VWS V14.01,2013-01-21 14:38:00,
2013-01-21 09:43:00,25.8,17.4,30.06,SW,215,4.0,6.0,70,0.00,,,0.00,VWS V14.01,2013-01-21 14:43:00,
2013-01-21 09:48:00,26.0,17.2,30.06,South,173,3.0,6.0,69,0.00,,,0.00,VWS V14.01,2013-01-21 14:48:00,
2013-01-21 09:53:00,26.3,17.5,30.07,SW,218,0.0,6.0,69,0.00,,,0.00,VWS V14.01,2013-01-21 14:53:00,
2013-01-21 09:58:00,26.5,17.4,30.06,South,188,0.0,6.0,68,0.00,,,0.00,VWS V14.01,2013-01-21 14:58:00,
2013-01-21 10:03:00,26.7,17.2,30.06,South,175,1.0,5.0,67,0.00,,,0.00,VWS V14.01,2013-01-21 15:03:00,
2013-01-21 10:08:00,26.9,17.1,30.06,SW,219,2.0,6.0,66,0.00,,,0.00,VWS V14.01,2013-01-21 15:08:00,
2013-01-21 10:13:00,26.9,16.7,30.06,SW,227,2.0,7.0,65,0.00,,,0.00,VWS V14.01,2013-01-21 15:13:00,
2013-01-21 10:19:00,27.0,16.8,30.06,SSW,207,4.0,7.0,65,0.00,,,0.00,VWS V14.01,2013-01-21 15:19:00,
2013-01-21 10:24:00,27.1,16.6,30.05,South,170,1.0,8.0,64,0.00,,,0.00,VWS V14.01,2013-01-21 15:24:00,
2013-01-21 10:29:00,27.4,16.5,30.05,WSW,239,1.0,8.0,63,0.00,,,0.00,VWS V14.01,2013-01-21 15:29:00,
2013-01-21 10:34:00,27.5,16.2,30.05,SSW,209,7.0,8.0,62,0.00,,,0.00,VWS V14.01,2013-01-21 15:34:00,
2013-01-21 10:39:00,27.6,16.3,30.04,South,173,3.0,8.0,62,0.00,,,0.00,VWS V14.01,2013-01-21 15:39:00,
2013-01-21 10:44:00,27.8,15.7,30.04,SSW,210,3.0,12.0,60,0.00,,,0.00,VWS V14.01,2013-01-21 15:44:00,
2013-01-21 10:49:00,28.0,15.9,30.03,SSW,196,3.0,12.0,60,0.00,,,0.00,VWS V14.01,2013-01-21 15:49:00,
2013-01-21 10:54:00,28.2,15.3,30.03,SW,219,5.0,12.0,58,0.00,,,0.00,VWS V14.01,2013-01-21 15:54:00,
2013-01-21 10:59:00,28.4,15.1,30.03,SW,221,3.0,12.0,57,0.00,,,0.00,VWS V14.01,2013-01-21 15:59:00,
2013-01-21 11:04:00,28.5,15.2,30.02,WSW,247,4.0,9.0,57,0.00,,,0.00,VWS V14.01,2013-01-21 16:04:00,
2013-01-21 11:09:00,28.7,15.8,30.02,South,188,2.0,9.0,58,0.00,,,0.00,VWS V14.01,2013-01-21 16:09:00,
2013-01-21 11:15:00,28.7,15.4,30.02,SW,227,9.0,10.0,57,0.00,,,0.00,VWS V14.01,2013-01-21 16:15:00,
2013-01-21 11:20:00,28.7,15.4,30.02,SSW,209,2.0,10.0,57,0.00,,,0.00,VWS V14.01,2013-01-21 16:20:00,
2013-01-21 11:25:00,28.8,15.5,30.02,West,281,6.0,10.0,57,0.00,,,0.00,VWS V14.01,2013-01-21 16:25:00,
2013-01-21 11:30:00,28.9,16.0,30.02,SW,229,3.0,4.0,58,0.00,,,0.00,VWS V14.01,2013-01-21 16:30:00,
2013-01-21 11:35:00,29.0,14.9,30.01,SSW,207,1.0,10.0,55,0.00,,,0.00,VWS V14.01,2013-01-21 16:35:00,
2013-01-21 11:40:00,29.1,15.4,30.01,SW,231,5.0,10.0,56,0.00,,,0.00,VWS V14.01,2013-01-21 16:40:00,
2013-01-21 11:45:00,29.1,15.4,30.00,West,279,7.0,10.0,56,0.00,,,0.00,VWS V14.01,2013-01-21 16:45:00,
2013-01-21 11:50:00,29.1,15.8,30.00,SSW,209,3.0,10.0,57,0.00,,,0.00,VWS V14.01,2013-01-21 16:50:00,
2013-01-21 11:55:00,29.1,15.8,29.99,WSW,244,4.0,10.0,57,0.00,,,0.00,VWS V14.01,2013-01-21 16:55:00,
2013-01-21 12:00:00,29.0,15.7,29.99,West,275,0.0,3.0,57,0.00,,,0.00,VWS V14.01,2013-01-21 17:00:00,
2013-01-21 12:05:00,29.0,15.7,29.99,SW,224,2.0,6.0,57,0.00,,,0.00,VWS V14.01,2013-01-21 17:05:00,
2013-01-21 12:10:00,29.0,15.7,29.98,WSW,242,2.0,6.0,57,0.00,,,0.00,VWS V14.01,2013-01-21 17:10:00,
2013-01-21 12:15:00,29.0,15.7,29.98,West,267,5.0,6.0,57,0.00,,,0.00,VWS V14.01,2013-01-21 17:15:00,
2013-01-21 12:20:00,29.0,16.5,29.98,WSW,247,1.0,6.0,59,0.00,,,0.00,VWS V14.01,2013-01-21 17:20:00,
2013-01-21 12:25:00,28.9,16.0,29.97,WSW,248,3.0,7.0,58,0.00,,,0.00,VWS V14.01,2013-01-21 17:25:00,
2013-01-21 12:30:00,28.8,15.9,29.97,SW,227,3.0,10.0,58,0.00,,,0.00,VWS V14.01,2013-01-21 17:30:00,
2013-01-21 12:35:00,28.7,16.2,29.97,West,259,0.0,10.0,59,0.00,,,0.00,VWS V14.01,2013-01-21 17:35:00,
2013-01-21 12:40:00,28.7,16.6,29.97,SW,226,4.0,10.0,60,0.00,,,0.00,VWS V14.01,2013-01-21 17:40:00,
2013-01-21 12:46:00,28.6,16.5,29.97,WNW,294,4.0,11.0,60,0.00,,,0.00,VWS V14.01,2013-01-21 17:46:00,
2013-01-21 12:51:00,28.4,16.7,29.97,SW,236,6.0,11.0,61,0.00,,,0.00,VWS V14.01,2013-01-21 17:51:00,
2013-01-21 12:56:00,28.4,16.7,29.96,WSW,250,9.0,11.0,61,0.00,,,0.00,VWS V14.01,2013-01-21 17:56:00,
2013-01-21 13:01:00,28.4,16.7,29.96,South,188,2.0,7.0,61,0.00,,,0.00,VWS V14.01,2013-01-21 18:01:00,
2013-01-21 13:06:00,28.4,17.1,29.96,SW,229,7.0,7.0,62,0.00,,,0.00,VWS V14.01,2013-01-21 18:06:00,
2013-01-21 13:11:00,28.5,16.8,29.97,WSW,248,3.0,7.0,61,0.00,,,0.00,VWS V14.01,2013-01-21 18:11:00,
2013-01-21 13:16:00,28.3,17.0,29.96,SW,221,7.0,11.0,62,0.00,,,0.00,VWS V14.01,2013-01-21 18:16:00,
2013-01-21 13:21:00,28.1,16.8,29.97,West,274,2.0,11.0,62,0.00,,,0.00,VWS V14.01,2013-01-21 18:21:00,
2013-01-21 13:26:00,28.1,17.5,29.97,SW,232,5.0,11.0,64,0.00,,,0.00,VWS V14.01,2013-01-21 18:26:00,
2013-01-21 13:31:00,28.1,17.1,29.97,SSW,207,5.0,8.0,63,0.00,,,0.00,VWS V14.01,2013-01-21 18:31:00,
2013-01-21 13:36:00,27.9,17.0,29.97,WSW,247,6.0,9.0,63,0.00,,,0.00,VWS V14.01,2013-01-21 18:36:00,
2013-01-21 13:41:00,27.8,17.6,29.97,WSW,244,3.0,9.0,65,0.00,,,0.00,VWS V14.01,2013-01-21 18:41:00,
2013-01-21 13:46:00,27.5,17.3,29.97,SW,236,6.0,14.0,65,0.00,,,0.00,VWS V14.01,2013-01-21 18:46:00,
2013-01-21 13:51:00,27.4,17.5,29.97,West,262,2.0,14.0,66,0.00,,,0.00,VWS V14.01,2013-01-21 18:51:00,
2013-01-21 13:56:00,27.5,17.6,29.97,SW,225,7.0,14.0,66,0.00,,,0.00,VWS V14.01,2013-01-21 18:56:00,
2013-01-21 14:01:00,27.3,18.5,29.97,WNW,298,8.0,14.0,69,0.00,,,0.00,VWS V14.01,2013-01-21 19:01:00,
2013-01-21 14:07:00,26.6,19.1,29.97,West,271,4.0,15.0,73,0.00,,,0.00,VWS V14.01,2013-01-21 19:07:00,
2013-01-21 14:12:00,26.4,19.6,29.97,SW,225,4.0,15.0,75,0.00,,,0.00,VWS V14.01,2013-01-21 19:12:00,
2013-01-21 14:17:00,26.3,19.8,29.98,South,189,4.0,15.0,76,0.00,,,0.00,VWS V14.01,2013-01-21 19:17:00,
2013-01-21 14:22:00,25.8,19.9,29.98,WNW,287,12.0,15.0,78,0.00,,,0.00,VWS V14.01,2013-01-21 19:22:00,
2013-01-21 14:27:00,25.4,20.1,29.98,WNW,290,4.0,15.0,80,0.00,,,0.00,VWS V14.01,2013-01-21 19:27:00,
2013-01-21 14:32:00,25.5,20.5,29.99,West,270,2.0,6.0,81,0.00,,,0.00,VWS V14.01,2013-01-21 19:32:00,
2013-01-21 14:37:00,25.5,20.5,29.99,WNW,292,2.0,7.0,81,0.00,,,0.00,VWS V14.01,2013-01-21 19:37:00,
2013-01-21 14:42:00,25.5,20.5,29.99,SW,227,2.0,7.0,81,0.00,,,0.00,VWS V14.01,2013-01-21 19:42:00,
2013-01-21 14:47:00,25.7,20.4,29.99,WSW,238,2.0,7.0,80,0.00,,,0.00,VWS V14.01,2013-01-21 19:47:00,
2013-01-21 14:52:00,25.8,20.5,29.99,WNW,286,1.0,7.0,80,0.00,,,0.00,VWS V14.01,2013-01-21 19:52:00,
2013-01-21 14:57:00,25.9,20.0,29.99,West,275,6.0,10.0,78,0.00,,,0.00,VWS V14.01,2013-01-21 19:57:00,
2013-01-21 15:02:00,25.7,18.9,29.99,West,273,3.0,10.0,75,0.00,,,0.00,VWS V14.01,2013-01-21 20:02:00,
2013-01-21 15:07:00,25.7,19.2,29.99,WSW,246,4.0,13.0,76,0.00,,,0.00,VWS V14.01,2013-01-21 20:07:00,
2013-01-21 15:12:00,25.7,19.2,29.99,SW,225,4.0,13.0,76,0.00,,,0.00,VWS V14.01,2013-01-21 20:12:00,
2013-01-21 15:17:00,25.9,19.1,29.99,WNW,290,0.0,13.0,75,0.00,,,0.00,VWS V14.01,2013-01-21 20:17:00,
2013-01-21 15:22:00,26.1,18.6,29.99,West,265,8.0,13.0,73,0.00,,,0.00,VWS V14.01,2013-01-21 20:22:00,
2013-01-21 15:27:00,26.3,18.2,29.99,WSW,251,4.0,13.0,71,0.00,,,0.00,VWS V14.01,2013-01-21 20:27:00,
2013-01-21 15:32:00,26.5,18.0,30.00,WSW,256,5.0,14.0,70,0.00,,,0.00,VWS V14.01,2013-01-21 20:32:00,
2013-01-21 15:37:00,26.2,18.1,30.00,WSW,240,5.0,14.0,71,0.00,,,0.00,VWS V14.01,2013-01-21 20:37:00,
2013-01-21 15:42:00,26.0,17.6,30.00,WSW,242,4.0,14.0,70,0.00,,,0.00,VWS V14.01,2013-01-21 20:42:00,
2013-01-21 15:47:00,25.7,17.9,30.00,WSW,248,2.0,14.0,72,0.00,,,0.00,VWS V14.01,2013-01-21 20:47:00,
2013-01-21 15:52:00,25.8,17.0,30.01,WSW,244,6.0,14.0,69,0.00,,,0.00,VWS V14.01,2013-01-21 20:52:00,
2013-01-21 15:58:00,25.7,16.3,30.01,WNW,284,3.0,14.0,67,0.00,,,0.00,VWS V14.01,2013-01-21 20:58:00,
2013-01-21 16:03:00,26.1,17.0,30.01,WSW,244,1.0,8.0,68,0.00,,,0.00,VWS V14.01,2013-01-21 21:03:00,
2013-01-21 16:08:00,26.1,15.2,30.01,SW,230,5.0,11.0,63,0.00,,,0.00,VWS V14.01,2013-01-21 21:08:00,
2013-01-21 16:13:00,26.0,14.8,30.01,West,265,6.0,13.0,62,0.00,,,0.00,VWS V14.01,2013-01-21 21:13:00,
2013-01-21 16:18:00,26.0,14.8,30.01,WSW,240,5.0,13.0,62,0.00,,,0.00,VWS V14.01,2013-01-21 21:18:00,
2013-01-21 16:23:00,26.0,13.6,30.01,SW,234,7.0,13.0,59,0.00,,,0.00,VWS V14.01,2013-01-21 21:23:00,
2013-01-21 16:28:00,26.1,13.4,30.01,SW,236,6.0,13.0,58,0.00,,,0.00,VWS V14.01,2013-01-21 21:28:00,
2013-01-21 16:33:00,26.1,13.4,30.01,SW,229,9.0,10.0,58,0.00,,,0.00,VWS V14.01,2013-01-21 21:33:00,
2013-01-21 16:38:00,26.0,12.9,30.01,West,271,8.0,11.0,57,0.00,,,0.00,VWS V14.01,2013-01-21 21:38:00,
2013-01-21 16:43:00,25.9,12.8,30.01,SW,227,4.0,14.0,57,0.00,,,0.00,VWS V14.01,2013-01-21 21:43:00,
2013-01-21 16:48:00,25.7,13.0,30.01,WNW,294,12.0,14.0,58,0.00,,,0.00,VWS V14.01,2013-01-21 21:48:00,
2013-01-21 16:53:00,25.3,13.8,30.02,WNW,283,7.0,14.0,61,0.00,,,0.00,VWS V14.01,2013-01-21 21:53:00,
2013-01-21 16:58:00,25.1,13.6,30.02,West,271,7.0,14.0,61,0.00,,,0.00,VWS V14.01,2013-01-21 21:58:00,
2013-01-21 17:03:00,25.0,13.5,30.02,WNW,288,2.0,8.0,61,0.00,,,0.00,VWS V14.01,2013-01-21 22:03:00,
2013-01-21 17:09:00,25.0,13.1,30.02,WSW,250,5.0,8.0,60,0.00,,,0.00,VWS V14.01,2013-01-21 22:09:00,
2013-01-21 17:14:00,24.9,12.6,30.02,SW,217,4.0,11.0,59,0.00,,,0.00,VWS V14.01,2013-01-21 22:14:00,
2013-01-21 17:19:00,24.7,12.4,30.02,WSW,250,10.0,12.0,59,0.00,,,0.00,VWS V14.01,2013-01-21 22:19:00,
2013-01-21 17:24:00,24.6,12.3,30.02,WSW,240,4.0,16.0,59,0.00,,,0.00,VWS V14.01,2013-01-21 22:24:00,
2013-01-21 17:29:00,24.4,12.1,30.02,WSW,242,10.0,20.0,59,0.00,,,0.00,VWS V14.01,2013-01-21 22:29:00,
2013-01-21 17:34:00,24.3,12.4,30.02,SW,231,5.0,9.0,60,0.00,,,0.00,VWS V14.01,2013-01-21 22:34:00,
2013-01-21 17:39:00,24.2,11.9,30.03,WSW,247,8.0,9.0,59,0.00,,,0.00,VWS V14.01,2013-01-21 22:39:00,
2013-01-21 17:44:00,24.2,12.3,30.03,West,261,3.0,9.0,60,0.00,,,0.00,VWS V14.01,2013-01-21 22:44:00,
2013-01-21 17:49:00,24.2,12.7,30.03,WNW,283,4.0,9.0,61,0.00,,,0.00,VWS V14.01,2013-01-21 22:49:00,
2013-01-21 17:54:00,23.9,13.5,30.04,WNW,294,12.0,14.0,64,0.00,,,0.00,VWS V14.01,2013-01-21 22:54:00,
2013-01-21 17:59:00,23.5,14.5,30.04,SW,236,0.0,19.0,68,0.00,,,0.00,VWS V14.01,2013-01-21 22:59:00,
2013-01-21 18:04:00,23.1,14.5,30.04,WNW,298,4.0,17.0,69,0.00,,,0.00,VWS V14.01,2013-01-21 23:04:00,
2013-01-21 18:09:00,22.7,15.1,30.05,WSW,240,4.0,17.0,72,0.00,,,0.00,VWS V14.01,2013-01-21 23:09:00,
2013-01-21 18:14:00,22.4,14.8,30.04,WSW,250,0.0,17.0,72,0.00,,,0.00,VWS V14.01,2013-01-21 23:14:00,
2013-01-21 18:19:00,22.3,14.3,30.04,West,277,3.0,17.0,71,0.00,,,0.00,VWS V14.01,2013-01-21 23:19:00,
2013-01-21 18:24:00,22.2,13.9,30.05,SW,229,5.0,17.0,70,0.00,,,0.00,VWS V14.01,2013-01-21 23:24:00,
2013-01-21 18:29:00,22.2,14.2,30.05,SSW,211,0.0,17.0,71,0.00,,,0.00,VWS V14.01,2013-01-21 23:29:00,
2013-01-21 18:34:00,22.2,14.2,30.05,WSW,249,9.0,9.0,71,0.00,,,0.00,VWS V14.01,2013-01-21 23:34:00,
2013-01-21 18:39:00,22.2,13.9,30.05,West,275,0.0,9.0,70,0.00,,,0.00,VWS V14.01,2013-01-21 23:39:00,
2013-01-21 18:44:00,22.1,13.8,30.06,SW,227,3.0,12.0,70,0.00,,,0.00,VWS V14.01,2013-01-21 23:44:00,
2013-01-21 18:49:00,21.9,14.0,30.06,SW,221,0.0,12.0,71,0.00,,,0.00,VWS V14.01,2013-01-21 23:49:00,
2013-01-21 18:55:00,21.8,14.2,30.06,SW,233,5.0,12.0,72,0.00,,,0.00,VWS V14.01,2013-01-21 23:55:00,
2013-01-21 19:00:00,21.6,14.0,30.06,West,269,2.0,12.0,72,0.00,,,0.00,VWS V14.01,2013-01-22 00:00:00,
2013-01-21 19:05:00,21.5,13.6,30.06,SW,228,3.0,7.0,71,0.00,,,0.00,VWS V14.01,2013-01-22 00:05:00,
2013-01-21 19:10:00,21.3,13.7,30.06,SW,217,3.0,8.0,72,0.00,,,0.00,VWS V14.01,2013-01-22 00:10:00,
2013-01-21 19:15:00,21.2,14.2,30.06,SW,223,0.0,10.0,74,0.00,,,0.00,VWS V14.01,2013-01-22 00:15:00,
2013-01-21 19:20:00,21.1,14.4,30.06,West,260,4.0,10.0,75,0.00,,,0.00,VWS V14.01,2013-01-22 00:20:00,
2013-01-21 19:25:00,20.9,13.3,30.06,SW,233,4.0,13.0,72,0.00,,,0.00,VWS V14.01,2013-01-22 00:25:00,
2013-01-21 19:30:00,20.8,11.9,30.07,WSW,238,3.0,5.0,68,0.00,,,0.00,VWS V14.01,2013-01-22 00:30:00,
2013-01-21 19:35:00,20.8,11.9,30.06,WSW,241,0.0,9.0,68,0.00,,,0.00,VWS V14.01,2013-01-22 00:35:00,
2013-01-21 19:40:00,20.8,11.6,30.06,West,263,0.0,9.0,67,0.00,,,0.00,VWS V14.01,2013-01-22 00:40:00,
2013-01-21 19:45:00,20.8,11.2,30.07,SW,235,7.0,12.0,66,0.00,,,0.00,VWS V14.01,2013-01-22 00:45:00,
2013-01-21 19:50:00,20.6,11.1,30.07,WNW,284,16.0,17.0,66,0.00,,,0.00,VWS V14.01,2013-01-22 00:50:00,
2013-01-21 19:55:00,19.9,10.7,30.07,NW,306,11.0,17.0,67,0.00,,,0.00,VWS V14.01,2013-01-22 00:55:00,
2013-01-21 20:00:00,19.4,10.6,30.07,WNW,292,7.0,11.0,68,0.00,,,0.00,VWS V14.01,2013-01-22 01:00:00,
2013-01-21 20:05:00,19.3,10.1,30.07,West,272,2.0,13.0,67,0.00,,,0.00,VWS V14.01,2013-01-22 01:05:00,
2013-01-21 20:10:00,19.2,10.1,30.07,SW,227,2.0,13.0,67,0.00,,,0.00,VWS V14.01,2013-01-22 01:10:00,
2013-01-21 20:16:00,19.2,9.4,30.08,WNW,284,7.0,13.0,65,0.00,,,0.00,VWS V14.01,2013-01-22 01:16:00,
2013-01-21 20:21:00,19.2,8.7,30.07,West,267,7.0,13.0,63,0.00,,,0.00,VWS V14.01,2013-01-22 01:21:00,
2013-01-21 20:26:00,19.0,8.1,30.08,WNW,298,3.0,20.0,62,0.00,,,0.00,VWS V14.01,2013-01-22 01:26:00,
2013-01-21 20:31:00,18.8,7.9,30.08,West,259,2.0,11.0,62,0.00,,,0.00,VWS V14.01,2013-01-22 01:31:00,
2013-01-21 20:36:00,18.5,9.1,30.08,WNW,284,9.0,18.0,66,0.00,,,0.00,VWS V14.01,2013-01-22 01:36:00,
2013-01-21 20:41:00,17.9,10.4,30.09,WNW,293,9.0,20.0,72,0.00,,,0.00,VWS V14.01,2013-01-22 01:41:00,
2013-01-21 20:46:00,17.2,10.9,30.09,NW,306,15.0,20.0,76,0.00,,,0.00,VWS V14.01,2013-01-22 01:46:00,
2013-01-21 20:51:00,16.6,11.2,30.09,NW,306,12.0,20.0,79,0.00,,,0.00,VWS V14.01,2013-01-22 01:51:00,
2013-01-21 20:56:00,16.4,11.0,30.10,WSW,248,3.0,20.0,79,0.00,,,0.00,VWS V14.01,2013-01-22 01:56:00,
2013-01-21 21:01:00,16.4,11.0,30.10,WSW,248,3.0,8.0,79,0.00,,,0.00,VWS V14.01,2013-01-22 02:01:00,
2013-01-21 21:06:00,16.3,10.9,30.10,WNW,288,7.0,8.0,79,0.00,,,0.00,VWS V14.01,2013-01-22 02:06:00,
2013-01-21 21:11:00,16.1,10.8,30.10,West,279,4.0,8.0,79,0.00,,,0.00,VWS V14.01,2013-01-22 02:11:00,
2013-01-21 21:16:00,16.0,9.8,30.10,WNW,295,5.0,11.0,76,0.00,,,0.00,VWS V14.01,2013-01-22 02:16:00,
2013-01-21 21:22:00,16.0,9.2,30.11,West,277,1.0,11.0,74,0.00,,,0.00,VWS V14.01,2013-01-22 02:22:00,
2013-01-21 21:27:00,16.0,9.2,30.11,WSW,254,0.0,11.0,74,0.00,,,0.00,VWS V14.01,2013-01-22 02:27:00,
2013-01-21 21:32:00,15.9,8.8,30.11,West,270,2.0,6.0,73,0.00,,,0.00,VWS V14.01,2013-01-22 02:32:00,
2013-01-21 21:37:00,15.9,8.8,30.11,WNW,287,2.0,6.0,73,0.00,,,0.00,VWS V14.01,2013-01-22 02:37:00,
2013-01-21 21:42:00,15.9,8.5,30.11,West,264,2.0,6.0,72,0.00,,,0.00,VWS V14.01,2013-01-22 02:42:00,
2013-01-21 21:47:00,16.0,8.0,30.11,WSW,257,3.0,14.0,70,0.00,,,0.00,VWS V14.01,2013-01-22 02:47:00,
2013-01-21 21:52:00,16.1,7.1,30.11,SW,227,3.0,14.0,67,0.00,,,0.00,VWS V14.01,2013-01-22 02:52:00,
2013-01-21 21:57:00,16.2,6.8,30.11,West,269,0.0,14.0,66,0.00,,,0.00,VWS V14.01,2013-01-22 02:57:00,
2013-01-21 22:02:00,16.2,6.8,30.11,WSW,257,0.0,3.0,66,0.00,,,0.00,VWS V14.01,2013-01-22 03:02:00,
2013-01-21 22:07:00,16.2,6.8,30.11,WNW,285,7.0,11.0,66,0.00,,,0.00,VWS V14.01,2013-01-22 03:07:00,
2013-01-21 22:12:00,16.2,6.8,30.11,WSW,250,2.0,11.0,66,0.00,,,0.00,VWS V14.01,2013-01-22 03:12:00,
2013-01-21 22:17:00,16.2,7.2,30.12,West,269,0.0,11.0,67,0.00,,,0.00,VWS V14.01,2013-01-22 03:17:00,
2013-01-21 22:22:00,16.3,7.6,30.12,SW,228,3.0,11.0,68,0.00,,,0.00,VWS V14.01,2013-01-22 03:22:00,
2013-01-21 22:27:00,16.1,8.4,30.12,WSW,245,2.0,11.0,71,0.00,,,0.00,VWS V14.01,2013-01-22 03:27:00,
2013-01-21 22:32:00,15.9,8.2,30.12,SW,224,0.0,5.0,71,0.00,,,0.00,VWS V14.01,2013-01-22 03:32:00,
2013-01-21 22:37:00,15.7,7.7,30.12,SSW,212,0.0,5.0,70,0.00,,,0.00,VWS V14.01,2013-01-22 03:37:00,
2013-01-21 22:42:00,15.7,8.3,30.12,WSW,240,5.0,5.0,72,0.00,,,0.00,VWS V14.01,2013-01-22 03:42:00,
2013-01-21 22:48:00,15.3,9.4,30.12,WSW,242,0.0,7.0,77,0.00,,,0.00,VWS V14.01,2013-01-22 03:48:00,
2013-01-21 22:53:00,15.0,10.0,30.12,WSW,246,0.0,7.0,80,0.00,,,0.00,VWS V14.01,2013-01-22 03:53:00,
2013-01-21 22:58:00,14.7,9.9,30.12,West,279,3.0,7.0,81,0.00,,,0.00,VWS V14.01,2013-01-22 03:58:00,
2013-01-21 23:03:00,14.5,9.5,30.12,West,263,1.0,6.0,80,0.00,,,0.00,VWS V14.01,2013-01-22 04:03:00,
2013-01-21 23:08:00,14.5,9.7,30.12,WSW,249,0.0,6.0,81,0.00,,,0.00,VWS V14.01,2013-01-22 04:08:00,
2013-01-21 23:13:00,14.5,9.7,30.12,WSW,242,0.0,6.0,81,0.00,,,0.00,VWS V14.01,2013-01-22 04:13:00,
2013-01-21 23:18:00,14.4,9.6,30.13,West,279,3.0,6.0,81,0.00,,,0.00,VWS V14.01,2013-01-22 04:18:00,
2013-01-21 23:23:00,14.5,10.0,30.12,SW,231,2.0,6.0,82,0.00,,,0.00,VWS V14.01,2013-01-22 04:23:00,
2013-01-21 23:28:00,14.5,10.3,30.13,SW,215,6.0,7.0,83,0.00,,,0.00,VWS V14.01,2013-01-22 04:28:00,
2013-01-21 23:33:00,13.9,9.4,30.13,WSW,254,9.0,14.0,82,0.00,,,0.00,VWS V14.01,2013-01-22 04:33:00,
2013-01-21 23:38:00,13.5,9.0,30.13,WSW,254,2.0,14.0,82,0.00,,,0.00,VWS V14.01,2013-01-22 04:38:00,
2013-01-21 23:43:00,13.2,9.0,30.13,West,270,2.0,14.0,83,0.00,,,0.00,VWS V14.01,2013-01-22 04:43:00,
2013-01-21 23:48:00,13.1,9.2,30.13,West,281,6.0,14.0,84,0.00,,,0.00,VWS V14.01,2013-01-22 04:48:00,
2013-01-21 23:53:00,12.9,9.0,30.13,WSW,252,2.0,14.0,84,0.00,,,0.00,VWS V14.01,2013-01-22 04:53:00,
2013-01-21 23:58:00,12.8,8.9,30.14,WNW,298,4.0,14.0,84,0.00,,,0.00,VWS V14.01,2013-01-22 04:58:00,